Home > Weather > Sunrise > Past weeks

Flag for USA Past Weather in Sunrise, Florida, USA — Yesterday and Last 2 Weeks

Now
77 °F

Clear.


Feels Like: 78 °F
Forecast: 78 / 87 °F
Wind: No wind

Location: Fort Lauderdale Executive Airport

Current Time: Jul 2, 2016 at 12:05:39 AM

Latest Report: Jul 1, 2016 at 10:53 PM


Visibility: 10 mi

Pressure: 30.11 "Hg

Humidity: 90%

Dew Point: 74 °F

Location of SunriseLocation

Past Weather in Sunrise — Graph

°F

Sunrise Temperature Yesterday

Maximum temperature yesterday: 89 °F (at 11:53 AM)
Minimum temperature yesterday: 76 °F (at 9:53 PM)
Average temperature yesterday: 81 °F

High & Low Weather Summary for the Past Weeks

 TemperatureHumidityPressure
High93 °F (Jun 18, 2:53 PM)94% (Jun 18, 4:53 AM)30.15 "Hg (Jun 18, 4:53 AM)
Low72 °F (Jun 17, 12:57 PM)47% (Jun 18, 2:53 PM)29.93 "Hg (Jun 17, 7:53 PM)
Average81 °F74%30.06 "Hg
* Reported Jun 16 10:53 PM — Jul 1 10:53 PM, Sunrise, Weather by CustomWeather, © 2016

Note: Actual official high and low records may vary slightly from our data, if they occured in-between our weather recording intervals... More about our weather records

Advertising

Sunrise Weather History for the Previous 24 Hours

Scroll right to see more
 ConditionsComfort  
Time TempWeatherWind HumidityBarometerVisibility
10:53 PM
Fri, Jul 1
77 °FClear.No wind90%30.11 "Hg10 mi
9:53 PM76 °FPassing clouds.5 mph91%30.10 "Hg10 mi
8:53 PM77 °FOvercast.No wind88%30.09 "Hg10 mi
7:53 PM77 °FLight rain. Broken clouds.No wind85%30.07 "Hg10 mi
6:53 PM77 °FBroken clouds.8 mph85%30.05 "Hg10 mi
6:02 PM79 °FLight rain. Partly sunny.7 mph82%30.04 "Hg4 mi
5:53 PM82 °FScattered clouds.15 mph74%30.05 "Hg10 mi
4:53 PM85 °FPassing clouds.9 mph72%30.03 "Hg10 mi
3:53 PM86 °FSunny.10 mph67%30.04 "Hg10 mi
2:53 PM85 °FScattered clouds.9 mph68%30.05 "Hg10 mi
1:53 PM83 °FThunderstorms. Passing clouds.3 mph70%30.07 "Hg10 mi
12:53 PM80 °FThunderstorms. Broken clouds.7 mph76%30.09 "Hg6 mi
11:53 AM89 °FScattered clouds.5 mph61%30.08 "Hg10 mi
10:53 AM83 °FScattered clouds.8 mph74%30.08 "Hg10 mi
9:53 AM86 °FScattered clouds.6 mph70%30.07 "Hg10 mi
8:53 AM84 °FSunny.7 mph77%30.06 "Hg10 mi
7:53 AM82 °FScattered clouds.3 mph82%30.04 "Hg10 mi
6:53 AM78 °FClear.No wind87%30.03 "Hg10 mi
5:53 AM79 °FPassing clouds.No wind88%30.02 "Hg10 mi
4:53 AM80 °FClear.No wind85%30.01 "Hg10 mi
3:53 AM80 °FClear.5 mph85%30.01 "Hg10 mi
2:53 AM80 °FClear.No wind87%30.02 "Hg10 mi
1:53 AM80 °FPassing clouds.8 mph81%30.04 "Hg10 mi
12:53 AM78 °FPassing clouds.5 mph79%30.06 "Hg10 mi
Weather by CustomWeather, © 2016

See weather overviewHow to use our weather pages